"Timestamp","TZ","WindDir_Mean (deg)","WindSpd_Mean (km/h)","WindSpd_Min (km/h)","WindSpd_Max (km/h)","Temp_Mean (deg)","RH_Mean (%)","MSLP_Mean (hPa)","Rain_Acc (mm)","Rain_Intensity (mm/h)","Hail_Acc (hits/cm2)","Hail_Intensity (hits/cm2hr)","Solar_Mean (W/m2)"
2021/04/07 00:00:00.007,n,157,8.64,8.28,10.08,19.9,86.3,1014.22,0,0,0,0,0.035667
2021/04/07 00:01:00.000,n,130,10.08,7.56,11.16,19.9,86.3,1014.22,0,0,0,0,0.037422
2021/04/07 00:02:00.000,n,137,10.08,8.64,11.88,19.9,86.3,1014.22,0,0,0,0,0.037422
2021/04/07 00:03:00.000,n,165,6.12,5.04,7.56,20,86.3,1014.22,0,0,0,0,0.036545
2021/04/07 00:04:00.000,n,171,12.6,7.92,17.64,20,86.2,1014.22,0,0,0,0,0.037422
2021/04/07 00:05:00.000,n,157,26.28,21.96,52.56,20,86.1,1014.22,0,0,0,0,0.039177
2021/04/07 00:06:00.000,n,168,4.32,2.52,7.92,20,86.1,1014.22,0,0,0,0,0.039177
2021/04/07 00:07:00.012,n,173,9.72,9.36,10.8,20,86,1014.22,0,0,0,0,0.036545
2021/04/07 00:08:00.009,n,141,12.6,10.440002,14.76,20,85.9,1014.22,0,0,0,0,0.041771
2021/04/07 00:09:00.006,n,182,7.2,1.8,12.96,20,85.9,1014.22,0,0,0,0,0.036545
2021/04/07 00:10:00.000,n,169,11.88,9,14.4,20,85.8,1014.22,0,0,0,0,0.03479
2021/04/07 00:11:00.000,n,170,2.52,1.08,3.6,20,85.8,1014.22,0,0,0,0,0.037422
2021/04/07 00:12:00.000,n,200,4.68,3.6,6.12,20,85.8,1014.22,0,0,0,0,0.037422
2021/04/07 00:13:00.000,n,185,10.8,8.28,11.88,20,85.7,1014.22,0,0,0,0,0.035667
2021/04/07 00:14:00.006,n,166,11.16,10.08,12.24,20,85.7,1014.22,0,0,0,0,0.033073
2021/04/07 00:15:00.004,n,136,10.08,7.2,11.88,20,85.7,1014.22,0,0,0,0,0.037422
2021/04/07 00:16:00.000,n,109,7.92,5.4,9.36,20,85.7,1014.22,0,0,0,0,0.033951
2021/04/07 00:17:00.013,n,149,10.08,8.64,10.8,20,85.6,1014.22,0,0,0,0,0.035667
2021/04/07 00:18:00.010,n,153,5.4,2.88,8.28,20,85.7,1014.22,0,0,0,0,0.033951
2021/04/07 00:19:00.000,n,194,6.48,4.32,8.64,20,85.6,1014.22,0,0,0,0,0.033951
2021/04/07 00:20:00.003,n,186,7.56,5.4,8.28,20,85.6,1014.22,0,0,0,0,0.03479
2021/04/07 00:21:00.000,n,174,6.12,5.4,7.56,20,85.6,1014.22,0,0,0,0,0.037422
2021/04/07 00:22:00.000,n,200,5.4,3.24,6.84,20,85.6,1014.22,0,0,0,0,0.039177
2021/04/07 00:23:00.000,n,174,6.48,5.04,8.28,20,85.6,1014.22,0,0,0,0,0.037422
2021/04/07 00:24:00.009,n,174,8.64,7.2,9.72,20,85.6,1014.22,0,0,0,0,0.036545
2021/04/07 00:25:00.006,n,154,7.92,7.2,9,20,85.6,1014.22,0,0,0,0,0.032158
2021/04/07 00:26:00.003,n,224,8.64,1.44,11.16,20,85.5,1014.22,0,0,0,0,0.040016
2021/04/07 00:27:00.016,n,121,4.68,1.8,7.56,20,85.5,1014.22,0,0,0,0,0.0383
2021/04/07 00:28:00.000,n,236,0.72,0.36,1.44,20,85.6,1014.22,0,0,0,0,0.040016
2021/04/07 00:29:00.000,n,116,7.2,6.84,7.56,20,85.5,1014.22,0,0,0,0,0.0383
2021/04/07 00:30:00.000,n,132,6.12,4.68,6.84,20,85.6,1014.22,0,0,0,0,0.035667
2021/04/07 00:31:00.005,n,204,6.12,3.6,6.84,20,85.5,1014.22,0,0,0,0,0.039177
2021/04/07 00:32:00.003,n,173,6.12,5.4,6.84,20,85.6,1014.22,0,0,0,0,0.035667
2021/04/07 00:33:00.000,n,187,5.76,4.68,7.2,20,85.6,1014.22,0,0,0,0,0.033951
2021/04/07 00:34:00.012,n,151,5.4,4.68,6.12,20,85.5,1014.22,0,0,0,0,0.041771
2021/04/07 00:35:00.009,n,160,0.72,0.36,1.8,20,85.6,1014.22,0,0,0,0,0.040894
2021/04/07 00:36:00.006,n,134,5.04,3.96,5.76,20,85.6,1014.22,0,0,0,0,0.040016
2021/04/07 00:37:00.000,n,159,5.04,3.96,6.12,20,85.6,1014.22,0,0,0,0,0.040016
2021/04/07 00:38:00.000,n,196,6.84,5.4,8.64,20,85.5,1014.22,0,0,0,0,0.040016
2021/04/07 00:39:00.000,n,106,2.16,1.8,2.88,20,85.6,1014.22,0,0,0,0,0.041771
2021/04/07 00:40:00.000,n,188,5.76,4.68,6.48,20,85.6,1014.22,0,0,0,0,0.043526
2021/04/07 00:41:00.007,n,176,6.12,5.76,6.84,20,85.6,1014.22,0,0,0,0,0.043526
2021/04/07 00:42:00.004,n,163,8.64,6.84,9.36,20,85.5,1014.22,0,0,0,0,0.043526
2021/04/07 00:43:00.000,n,214,10.08,9.36,11.52,20,85.5,1014.12,0,0,0,0,0.0383
2021/04/07 00:44:00.014,n,138,2.52,1.44,4.32,20,85.5,1014.22,0,0,0,0,0.041771
2021/04/07 00:45:00.011,n,159,2.88,2.16,3.96,20,85.5,1014.22,0,0,0,0,0.042648
2021/04/07 00:46:00.000,n,189,5.4,5.04,5.76,20,85.5,1014.12,0,0,0,0,0.041771
2021/04/07 00:47:00.000,n,197,8.64,7.56,10.8,20,85.5,1014.12,0,0,0,0,0.040016
2021/04/07 00:48:00.003,n,221,3.24,2.88,3.6,20.1,85.5,1014.12,0,0,0,0,0.041771
2021/04/07 00:49:00.000,n,195,3.24,2.52,5.04,20.1,85.5,1014.12,0,0,0,0,0.044365
2021/04/07 00:50:00.000,n,150,5.76,4.32,7.2,20.1,85.5,1014.22,0,0,0,0,0.045242
2021/04/07 00:51:00.010,n,189,8.28,4.32,11.88,20,85.4,1014.12,0,0,0,0,0.042648
2021/04/07 00:52:00.007,n,145,3.24,3.24,3.96,20,85.4,1014.12,0,0,0,0,0.041771
2021/04/07 00:53:00.004,n,178,8.28,7.92,9.36,20,85.4,1014.12,0,0,0,0,0.043526
2021/04/07 00:54:00.001,n,187,7.2,6.48,8.28,20,85.4,1014.12,0,0,0,0,0.04612
2021/04/07 00:55:00.000,n,164,5.4,4.68,5.76,20.1,85.4,1014.12,0,0,0,0,0.045242
2021/04/07 00:56:00.000,n,193,3.24,1.8,3.96,20.1,85.4,1014.02,0,0,0,0,0.024376
2021/04/07 00:57:00.005,n,147,7.92,6.48,9.36,20.1,85.4,1014.02,0,0,0,0,0.031357
2021/04/07 00:58:00.002,n,181,3.96,3.24,6.12,20.1,85.4,1014.02,0,0,0,0,0.028725
2021/04/07 00:59:00.000,n,181,3.6,3.24,3.96,20,85.4,1014.02,0,0,0,0,0.028725
2021/04/07 01:00:00.000,n,165,9.36,8.64,10.440002,20,85.5,1014.02,0,0,0,0,0.029602
2021/04/07 01:01:00.011,n,192,8.64,7.56,9,20,85.4,1013.92,0,0,0,0,0.028725
2021/04/07 01:02:00.008,n,132,7.56,6.48,8.64,20,85.5,1013.92,0,0,0,0,0.027008
2021/04/07 01:03:00.005,n,83,1.44,0.36,2.52,20,85.5,1013.92,0,0,0,0,0.028725
2021/04/07 01:04:00.000,n,209,2.52,0.72,3.6,20,85.5,1013.92,0,0,0,0,0.027885
2021/04/07 01:05:00.000,n,157,6.84,5.76,7.2,20,85.5,1013.92,0,0,0,0,0.028725
2021/04/07 01:06:00.000,n,122,7.2,6.84,7.92,20,85.5,1013.92,0,0,0,0,0.029602
2021/04/07 01:07:00.000,n,163,10.440002,9.72,10.8,20,85.5,1013.92,0,0,0,0,0.030518
2021/04/07 01:08:00.000,n,156,10.440002,6.84,14.4,20,85.5,1013.92,0,0,0,0,0.029602
2021/04/07 01:09:00.005,n,169,6.48,6.12,6.84,20,85.6,1013.92,0,0.1,0,0,0.027008
2021/04/07 01:10:00.012,n,147,12.24,11.16,13.68,20,85.5,1013.92,0.02,0.4,0,0,0.028725
2021/04/07 01:11:00.001,n,163,3.6,2.52,5.04,20,85.6,1013.92,0.04,0.9,0,0,0.031357
2021/04/07 01:12:00.015,n,121,2.88,1.44,4.68,20,85.6,1013.92,0.06,2,0,0,0.029602
2021/04/07 01:13:00.000,n,149,6.48,5.4,7.56,20,85.6,1013.92,0.09,1.3,0,0,0.023537
2021/04/07 01:14:00.000,n,163,3.6,2.52,4.32,20,85.7,1013.92,0.1,0.6,0,0,0.028725
2021/04/07 01:15:00.000,n,191,6.48,5.4,7.56,20,85.7,1013.92,0.1,0.3,0,0,0.030518
2021/04/07 01:16:00.008,n,197,5.04,4.68,5.4,20,85.8,1013.92,0.1,0,0,0,0.027885
2021/04/07 01:17:00.005,n,174,5.04,4.68,6.12,20,85.8,1013.92,0.1,0,0,0,0.030518
2021/04/07 01:18:00.002,n,170,2.52,2.16,2.88,20,85.8,1013.92,0.1,0,0,0,0.028725
2021/04/07 01:19:00.000,n,191,1.08,1.08,1.44,20,85.9,1013.92,0.1,0,0,0,0.027885
2021/04/07 01:20:00.013,n,193,3.96,3.6,4.32,20,85.9,1013.92,0.1,0,0,0,0.028725
2021/04/07 01:21:00.010,n,239,2.88,2.52,3.24,20,85.9,1013.92,0.1,0,0,0,0.027008
2021/04/07 01:22:00.000,n,242,1.8,1.44,1.8,20,85.9,1013.92,0.1,0,0,0,0.029602
2021/04/07 01:23:00.000,n,223,4.68,4.32,5.04,20,86,1013.92,0.1,0,0,0,0.026131
2021/04/07 01:24:00.002,n,178,3.24,2.52,3.96,20,85.9,1013.92,0.1,0,0,0,0.031357
2021/04/07 01:25:00.000,n,261,2.52,2.16,3.6,20,86.1,1013.92,0.1,0,0,0,0.026131
2021/04/07 01:26:00.000,n,224,1.44,0.72,2.52,20,86.1,1013.92,0.1,0,0,0,0.027008
2021/04/07 01:27:00.009,n,251,1.8,1.44,2.16,20,86,1013.92,0.1,0,0,0,0.030518
2021/04/07 01:28:00.005,n,191,2.88,2.16,3.24,20,86,1013.92,0.1,0,0,0,0.031357
2021/04/07 01:29:00.002,n,280,3.96,3.6,4.68,20,86.1,1013.92,0.1,0,0,0,0.029602
2021/04/07 01:30:00.016,n,261,2.16,1.8,2.52,20,86.1,1013.92,0.1,0,0,0,0.032234
2021/04/07 01:31:00.000,n,249,2.16,1.44,2.88,20,86.1,1013.92,0.1,0,0,0,0.033112
2021/04/07 01:32:00.000,n,251,2.16,1.44,2.16,20,86.1,1013.82,0.1,0,0,0,0.028725
2021/04/07 01:33:00.000,n,229,5.4,4.68,5.76,20,86,1013.82,0.1,0,0,0,0.029602
2021/04/07 01:34:00.005,n,241,1.8,1.44,1.8,20,86.1,1013.82,0.1,0,0,0,0.028725
2021/04/07 01:35:00.002,n,257,3.24,2.88,3.24,20,86.2,1013.72,0.1,0,0,0,0.027885
2021/04/07 01:36:00.000,n,253,2.52,2.16,2.52,20,86.2,1013.72,0.1,0,0,0,0.031357
2021/04/07 01:37:00.000,n,233,3.6,3.24,3.96,20,86.1,1013.72,0.11,0,0,0,0.032234
2021/04/07 01:38:00.012,n,219,2.52,2.16,2.88,20,86.2,1013.72,0.11,0.2,0,0,0.027885
2021/04/07 01:39:00.009,n,263,3.6,2.88,3.6,20,86.3,1013.72,0.11,0,0,0,0.029602
2021/04/07 01:40:00.000,n,165,1.08,0.72,1.08,20,86.3,1013.72,0.11,0,0,0,0.027008
2021/04/07 01:41:00.000,n,169,2.88,2.52,3.24,20,86.3,1013.72,0.12,0.5,0,0,0.030518
2021/04/07 01:42:00.003,n,259,2.52,1.08,3.96,20,86.4,1013.62,0.14,1,0,0,0.032234
2021/04/07 01:43:00.001,n,202,3.6,2.52,3.96,20,86.4,1013.62,0.14,0.2,0,0,0.031357
2021/04/07 01:44:00.000,n,216,2.88,2.16,4.68,20,86.3,1013.62,0.14,0.2,0,0,0.029602
2021/04/07 01:45:00.000,n,255,1.44,1.44,1.8,20,86.3,1013.62,0.15,0.6,0,0,0.029602
2021/04/07 01:46:00.011,n,247,3.96,3.24,5.04,20,86.4,1013.62,0.16,0.3,0,0,0.031357
2021/04/07 01:47:00.008,n,232,3.96,3.24,4.32,20,86.4,1013.62,0.16,0.3,0,0,0.028725
2021/04/07 01:48:00.006,n,239,3.96,2.88,3.96,20,86.4,1013.52,0.17,0.2,0,0,0.028725
2021/04/07 01:49:00.000,n,249,5.04,4.32,6.12,20,86.4,1013.52,0.18,0.4,0,0,0.032234
2021/04/07 01:50:00.001,n,274,4.32,3.6,4.68,20,86.4,1013.52,0.18,0.2,0,0,0.027008
2021/04/07 01:51:00.000,n,282,5.04,5.04,5.4,20,86.6,1013.52,0.18,0.1,0,0,0.027885
2021/04/07 01:52:00.000,n,252,4.68,3.96,5.4,20,86.5,1013.52,0.18,0.1,0,0,0.030518
2021/04/07 01:53:00.000,n,273,2.88,2.88,3.96,20,86.5,1013.52,0.19,0.2,0,0,0.030518
2021/04/07 01:54:00.008,n,271,5.04,4.68,5.4,20,86.5,1013.52,0.2,0.9,0,0,0.031357
2021/04/07 01:55:00.005,n,256,6.12,5.4,7.2,20,86.4,1013.52,0.2,0,0,0,0.030518
2021/04/07 01:56:00.003,n,250,3.6,3.24,3.96,19.9,86.6,1013.52,0.2,0,0,0,0.031357
2021/04/07 01:57:00.000,n,275,4.68,4.68,5.04,19.9,86.7,1013.52,0.2,0,0,0,0.028725
2021/04/07 01:58:00.000,n,259,2.88,2.52,3.24,20,86.6,1013.52,0.2,0,0,0,0.028725
2021/04/07 01:59:00.000,n,257,3.96,3.6,4.32,19.9,86.6,1013.42,0.21,0.1,0,0,0.033951
2021/04/07 02:00:00.000,n,254,3.24,2.52,3.24,20,86.8,1013.42,0.21,0.2,0,0,0.032234
2021/04/07 02:01:00.000,n,258,5.4,4.68,5.76,20,87,1013.42,0.21,0,0,0,0.033951
2021/04/07 02:02:00.006,n,272,5.76,5.4,6.48,20,87,1013.42,0.21,0,0,0,0.032234
2021/04/07 02:03:00.004,n,271,4.68,4.32,5.4,20,87.1,1013.42,0.21,0,0,0,0.033112
2021/04/07 02:04:00.001,n,263,5.04,4.68,5.4,20,86.7,1013.42,0.21,0,0,0,0.029602
2021/04/07 02:05:00.000,n,262,5.76,4.68,6.48,20,86.5,1013.42,0.21,0,0,0,0.031357
2021/04/07 02:06:00.012,n,267,5.4,5.04,5.76,19.9,86.6,1013.42,0.21,0,0,0,0.031357
2021/04/07 02:07:00.000,n,264,5.04,4.68,5.76,19.9,86.6,1013.42,0.21,0,0,0,0.032234
2021/04/07 02:08:00.000,n,262,3.6,3.24,5.04,19.9,86.7,1013.42,0.21,0,0,0,0.029602
2021/04/07 02:09:00.004,n,251,4.68,4.32,6.12,19.9,86.7,1013.32,0.21,0,0,0,0.029602
2021/04/07 02:10:00.000,n,283,5.04,3.96,5.76,19.9,86.9,1013.32,0.21,0,0,0,0.030518
2021/04/07 02:11:00.000,n,247,2.52,2.16,2.88,19.9,86.8,1013.32,0.21,0,0,0,0.029602
2021/04/07 02:12:00.000,n,242,3.24,2.52,3.96,19.9,86.9,1013.32,0.21,0,0,0,0.031357
2021/04/07 02:13:00.009,n,277,3.96,3.24,4.68,19.9,86.9,1013.32,0.21,0,0,0,0.029602
2021/04/07 02:14:00.007,n,256,3.6,3.6,3.96,19.9,86.8,1013.32,0.21,0,0,0,0.029602
2021/04/07 02:15:00.005,n,287,2.88,1.44,3.96,19.9,86.8,1013.32,0.21,0,0,0,0.032234
2021/04/07 02:16:00.000,n,267,3.6,2.88,4.32,19.9,86.9,1013.32,0.21,0,0,0,0.031357
2021/04/07 02:17:00.000,n,282,2.52,0.36,3.96,19.9,86.9,1013.22,0.21,0,0,0,0.030518
2021/04/07 02:18:00.000,n,249,3.96,3.24,4.32,19.9,87,1013.22,0.24,1.6,0,0,0.027885
2021/04/07 02:19:00.000,n,190,7.56,5.76,8.64,19.9,87,1013.22,0.24,0,0,0,0.027885
2021/04/07 02:20:00.009,n,211,2.52,2.16,2.88,19.9,87,1013.22,0.24,0.1,0,0,0.032234
2021/04/07 02:21:00.006,n,138,1.44,0.72,2.52,19.9,87,1013.22,0.24,0,0,0,0.029602
2021/04/07 02:22:00.003,n,203,1.44,1.08,1.8,19.9,87.1,1013.22,0.24,0,0,0,0.031357
2021/04/07 02:23:00.000,n,292,1.08,0.72,2.16,19.9,87,1013.22,0.24,0,0,0,0.031357
2021/04/07 02:24:00.015,n,270,6.12,5.4,7.2,19.9,87,1013.12,0.24,0,0,0,0.029602
2021/04/07 02:25:00.000,n,293,0.72,0.36,1.08,19.9,87.1,1013.12,0.24,0,0,0,0.029602
2021/04/07 02:26:00.000,n,199,3.6,2.88,4.32,19.9,87.1,1013.12,0.24,0,0,0,0.027008
2021/04/07 02:27:00.006,n,225,2.16,1.44,2.88,19.9,87.2,1013.12,0.24,0,0,0,0.030518
2021/04/07 02:28:00.002,n,230,2.52,1.8,4.32,19.9,87.2,1013.02,0.24,0,0,0,0.027008
2021/04/07 02:29:00.000,n,215,3.96,3.24,5.4,19.9,87.2,1013.02,0.24,0,0,0,0.028725
2021/04/07 02:30:00.000,n,187,3.6,2.52,4.32,19.9,87.1,1013.02,0.24,0,0,0,0.027008
2021/04/07 02:31:00.011,n,271,4.68,4.32,5.4,19.9,87.1,1013.02,0.24,0,0,0,0.027008
2021/04/07 02:32:00.008,n,279,3.24,2.52,3.96,19.9,87.1,1013.02,0.24,0,0,0,0.027885
2021/04/07 02:33:00.005,n,274,1.08,0.36,1.44,19.9,87.3,1013.02,0.24,0,0,0,0.027885
2021/04/07 02:34:00.000,n,258,2.88,2.16,2.88,19.9,87.2,1013.02,0.24,0,0,0,0.029602
2021/04/07 02:35:00.000,n,146,2.52,2.16,3.24,19.9,87.2,1013.02,0.24,0,0,0,0.032234
2021/04/07 02:36:00.000,n,156,3.6,2.88,3.96,19.9,87.1,1013.12,0.24,0,0,0,0.030518
2021/04/07 02:37:00.000,n,195,3.96,3.6,4.68,19.8,87.1,1013.12,0.24,0,0,0,0.030518
2021/04/07 02:38:00.007,n,185,4.32,2.52,6.12,19.8,87.1,1013.02,0.24,0,0,0,0.026131
2021/04/07 02:39:00.004,n,283,4.32,2.88,6.12,19.8,87.2,1013.02,0.24,0,0,0,0.023537
2021/04/07 02:40:00.002,n,261,7.92,7.56,8.64,19.9,87.3,1013.02,0.24,0,0,0,0.027008
2021/04/07 02:41:00.000,n,260,4.68,1.44,6.48,19.9,87.2,1013.02,0.24,0,0,0,0.029602
2021/04/07 02:42:00.013,n,262,5.4,4.32,5.76,19.9,87.2,1012.92,0.24,0,0,0,0.028725
2021/04/07 02:43:00.000,n,257,7.56,6.48,8.28,19.9,87.3,1012.92,0.24,0,0,0,0.027885
2021/04/07 02:44:00.000,n,270,1.44,0,3.24,19.8,87.1,1013.02,0.24,0,0,0,0.029602
2021/04/07 02:45:00.006,n,267,3.6,2.88,4.32,19.8,87.2,1012.92,0.24,0,0,0,0.029602
2021/04/07 02:46:00.002,n,265,5.04,5.04,5.76,19.8,87.1,1013.02,0.24,0,0,0,0.029602
2021/04/07 02:47:00.000,n,269,5.4,5.04,6.84,19.8,87.3,1012.92,0.24,0,0,0,0.032234
2021/04/07 02:48:00.000,n,270,3.6,3.6,3.96,19.8,87.2,1012.92,0.24,0,0,0,0.028725
2021/04/07 02:49:00.011,n,276,5.4,5.04,5.76,19.8,87.1,1012.92,0.24,0,0,0,0.027885
2021/04/07 02:50:00.008,n,280,5.76,5.04,6.48,19.8,87.1,1013.02,0.24,0,0,0,0.030518
2021/04/07 02:51:00.005,n,223,1.08,0.72,2.16,19.8,87.1,1012.92,0.24,0,0,0,0.027008
2021/04/07 02:52:00.000,n,274,5.4,5.04,5.76,19.8,87.2,1012.92,0.24,0,0,0,0.030518
2021/04/07 02:53:00.000,n,275,1.44,1.44,1.8,19.8,87.3,1012.92,0.24,0,0,0,0.030518
2021/04/07 02:54:00.000,n,283,1.44,1.08,2.88,19.8,87.2,1012.92,0.24,0,0,0,0.028725
2021/04/07 02:55:00.000,n,291,1.8,1.08,2.52,19.8,87.3,1012.92,0.24,0,0,0,0.027885
2021/04/07 02:56:00.008,n,265,0.72,0.36,1.08,19.8,87.4,1012.92,0.24,0,0,0,0.028725
2021/04/07 02:57:00.004,n,245,3.96,3.24,5.76,19.8,87.2,1012.92,0.24,0,0,0,0.024376
2021/04/07 02:58:00.002,n,243,2.88,2.52,3.6,19.8,87.2,1012.92,0.24,0,0,0,0.027008
2021/04/07 02:59:00.000,n,237,6.84,5.4,7.56,19.8,87.3,1012.92,0.24,0,0,0,0.030518
2021/04/07 03:00:00.014,n,265,5.04,3.96,5.76,19.8,87.4,1012.82,0.24,0,0,0,0.027008
2021/04/07 03:01:00.000,n,242,3.6,2.52,4.32,19.8,87.3,1012.82,0.24,0,0,0,0.028725
2021/04/07 03:02:00.000,n,217,3.24,3.24,3.6,19.8,87.2,1012.82,0.24,0,0,0,0.021782
2021/04/07 03:03:00.005,n,188,1.8,1.44,2.16,19.7,87.3,1012.82,0.24,0,0,0,0.023537
2021/04/07 03:04:00.002,n,331,1.44,0.72,2.88,19.7,87.3,1012.82,0.24,0,0,0,0.027008
2021/04/07 03:05:00.000,n,187,6.48,5.76,7.2,19.7,87.3,1012.72,0.24,0,0,0,0.027885
2021/04/07 03:06:00.000,n,231,4.32,2.16,5.76,19.7,87.2,1012.72,0.24,0,0,0,0.027885
2021/04/07 03:07:00.010,n,172,3.96,3.24,4.68,19.7,87.2,1012.72,0.24,0,0,0,0.027885
2021/04/07 03:08:00.006,n,157,2.88,2.16,3.6,19.7,87.2,1012.72,0.24,0,0,0,0.026131
2021/04/07 03:09:00.004,n,177,3.24,2.88,4.32,19.7,87.2,1012.72,0.24,0,0,0,0.027008
2021/04/07 03:10:00.002,n,181,6.12,5.76,7.2,19.7,87.2,1012.72,0.24,0,0,0,0.026131
2021/04/07 03:11:00.000,n,172,5.04,4.32,5.4,19.7,87.2,1012.72,0.24,0,0,0,0.027885
2021/04/07 03:12:00.000,n,164,4.68,3.96,5.04,19.7,87.2,1012.62,0.24,0,0,0,0.027885
2021/04/07 03:13:00.000,n,173,3.24,2.88,3.6,19.7,87.3,1012.62,0.24,0,0,0,0.030518
2021/04/07 03:14:00.009,n,170,5.04,4.68,6.12,19.7,87.3,1012.62,0.24,0,0,0,0.023537
2021/04/07 03:15:00.005,n,200,5.76,5.4,6.12,19.7,87.2,1012.62,0.24,0,0,0,0.029602
2021/04/07 03:16:00.003,n,174,3.24,0.72,5.04,19.7,87.2,1012.62,0.24,0,0,0,0.020943
2021/04/07 03:17:00.000,n,165,4.32,3.96,5.04,19.7,87.2,1012.62,0.24,0,0,0,0.026131
2021/04/07 03:18:00.013,n,192,3.96,3.6,4.32,19.7,87.2,1012.62,0.24,0,0,0,0.028725
2021/04/07 03:19:00.000,n,166,5.4,5.4,5.76,19.6,87.2,1012.62,0.24,0,0,0,0.026131
2021/04/07 03:20:00.000,n,169,7.92,5.4,9.72,19.6,87.2,1012.52,0.24,0,0,0,0.026131
2021/04/07 03:21:00.005,n,169,3.96,3.24,5.04,19.6,87.1,1012.52,0.24,0,0,0,0.027885
2021/04/07 03:22:00.002,n,106,1.8,1.08,3.24,19.6,87.1,1012.52,0.24,0,0,0,0.030518
2021/04/07 03:23:00.000,n,251,3.96,2.16,4.68,19.6,87.3,1012.52,0.24,0,0,0,0.030518
2021/04/07 03:24:00.000,n,171,3.96,3.6,4.32,19.6,87.3,1012.52,0.24,0,0,0,0.026131
2021/04/07 03:25:00.010,n,260,3.6,1.8,5.04,19.6,87.3,1012.52,0.24,0,0,0,0.026131
2021/04/07 03:26:00.007,n,253,1.8,1.44,2.52,19.6,87.3,1012.52,0.24,0,0,0,0.027008
2021/04/07 03:27:00.004,n,155,3.24,2.52,4.68,19.7,87.3,1012.52,0.24,0,0,0,0.023537
2021/04/07 03:28:00.001,n,197,3.6,3.24,4.32,19.7,87.2,1012.52,0.24,0,0,0,0.029602
2021/04/07 03:29:00.000,n,275,1.8,1.08,2.52,19.7,87.2,1012.52,0.24,0,0,0,0.027885
2021/04/07 03:30:00.000,n,208,3.24,2.88,3.6,19.7,87.3,1012.52,0.24,0,0,0,0.027008
2021/04/07 03:31:00.000,n,146,3.6,2.88,5.4,19.7,87.2,1012.52,0.24,0,0,0,0.023537
2021/04/07 03:32:00.008,n,137,3.96,3.24,5.04,19.7,87.3,1012.62,0.24,0,0,0,0.027885
2021/04/07 03:33:00.005,n,174,2.52,1.8,2.88,19.7,87.2,1012.62,0.24,0,0,0,0.031357
2021/04/07 03:34:00.002,n,252,6.48,6.12,6.84,19.7,87.2,1012.52,0.24,0,0,0,0.029602
2021/04/07 03:35:00.000,n,231,1.8,0.72,3.96,19.6,87.2,1012.52,0.24,0,0,0,0.027885
2021/04/07 03:36:00.013,n,282,3.6,3.24,3.96,19.7,87.3,1012.52,0.24,0,0,0,0.028725
2021/04/07 03:37:00.000,n,261,6.48,5.4,7.2,19.7,87.3,1012.52,0.24,0,0,0,0.030518
2021/04/07 03:38:00.000,n,232,3.24,2.16,4.32,19.7,87.2,1012.52,0.24,0,0,0,0.029602
2021/04/07 03:39:00.004,n,251,1.8,0.72,3.24,19.7,87.2,1012.52,0.24,0,0,0,0.030518
2021/04/07 03:40:00.001,n,268,6.12,6.12,6.48,19.7,87.4,1012.52,0.24,0,0,0,0.032234
2021/04/07 03:41:00.000,n,147,2.16,1.44,2.52,19.7,87.3,1012.52,0.24,0,0,0,0.028725
2021/04/07 03:42:00.000,n,258,2.52,1.44,4.32,19.7,87.2,1012.52,0.24,0,0,0,0.027008
2021/04/07 03:43:00.009,n,146,5.4,4.68,5.76,19.7,87.1,1012.52,0.24,0,0,0,0.032234
2021/04/07 03:44:00.006,n,158,6.84,6.48,7.2,19.7,87.1,1012.52,0.24,0,0,0,0.029602
2021/04/07 03:45:00.004,n,144,3.96,3.24,4.32,19.7,87.1,1012.52,0.24,0,0,0,0.031357
2021/04/07 03:46:00.001,n,168,3.96,1.08,4.32,19.7,87.1,1012.52,0.24,0,0,0,0.031357
2021/04/07 03:47:00.000,n,230,3.6,3.6,3.6,19.7,87.2,1012.52,0.24,0,0,0,0.031357
2021/04/07 03:48:00.000,n,194,0.36,0.36,0.72,19.7,87.2,1012.52,0.24,0,0,0,0.027885
2021/04/07 03:49:00.000,n,198,3.24,2.88,3.6,19.7,87.2,1012.52,0.24,0,0,0,0.027008
2021/04/07 03:50:00.008,n,162,7.92,7.2,8.28,19.7,87.1,1012.42,0.24,0,0,0,0.026131
2021/04/07 03:51:00.005,n,164,1.08,0.36,1.44,19.7,87.2,1012.42,0.24,0,0,0,0.031357
2021/04/07 03:52:00.003,n,184,4.68,3.24,6.12,19.7,87.1,1012.42,0.24,0,0,0,0.029602
2021/04/07 03:53:00.001,n,182,2.16,1.44,2.88,19.6,87.2,1012.42,0.24,0,0,0,0.031357
2021/04/07 03:54:00.015,n,195,2.88,1.8,3.96,19.7,87.2,1012.42,0.24,0,0,0,0.031357
2021/04/07 03:55:00.000,n,158,6.84,6.48,7.2,19.7,87.1,1012.42,0.24,0,0,0,0.031357
2021/04/07 03:56:00.000,n,187,7.56,6.84,8.28,19.6,87,1012.42,0.24,0,0,0,0.027008
2021/04/07 03:57:00.000,n,182,6.48,5.4,7.56,19.6,87,1012.52,0.24,0,0,0,0.031357
2021/04/07 03:58:00.003,n,253,6.84,6.12,9,19.6,87,1012.52,0.24,0,0,0,0.029602
2021/04/07 03:59:00.000,n,184,4.32,1.8,7.2,19.6,87.1,1012.52,0.24,0,0,0,0.031357
2021/04/07 04:00:00.000,n,172,2.16,0.72,4.32,19.6,87.1,1012.52,0.24,0,0,0,0.027885
2021/04/07 04:01:00.012,n,228,3.24,2.52,4.68,19.6,87.2,1012.52,0.24,0,0,0,0.033951
2021/04/07 04:02:00.008,n,165,8.28,7.2,9.36,19.6,87.2,1012.52,0.24,0,0,0,0.032234
2021/04/07 04:03:00.005,n,140,3.96,2.88,4.68,19.6,87.1,1012.52,0.24,0,0,0,0.033951
2021/04/07 04:04:00.000,n,203,7.2,6.12,7.92,19.6,87.1,1012.52,0.24,0,0,0,0.031357
2021/04/07 04:05:00.000,n,114,1.8,1.44,2.16,19.6,87.1,1012.52,0.24,0,0,0,0.033951
2021/04/07 04:06:00.000,n,174,6.48,3.24,7.92,19.6,87.2,1012.52,0.24,0,0,0,0.032234
2021/04/07 04:07:00.000,n,212,5.4,3.96,6.84,19.6,87.2,1012.52,0.24,0,0,0,0.034828
2021/04/07 04:08:00.000,n,176,5.4,4.32,6.12,19.6,87.2,1012.52,0.24,0,0,0,0.031357
2021/04/07 04:09:00.007,n,162,5.76,3.96,7.56,19.6,87.2,1012.52,0.24,0,0,0,0.032234
2021/04/07 04:10:00.005,n,188,6.12,5.4,6.48,19.6,87.3,1012.52,0.24,0,0,0,0.029602
2021/04/07 04:11:00.002,n,158,7.92,5.4,9.36,19.6,87.3,1012.52,0.24,0,0,0,0.033112
2021/04/07 04:12:00.016,n,180,6.48,3.24,8.28,19.6,87.3,1012.62,0.24,0,0,0,0.031357
2021/04/07 04:13:00.000,n,165,3.24,2.16,3.96,19.6,87.2,1012.62,0.24,0,0,0,0.028725
2021/04/07 04:14:00.000,n,261,7.2,6.84,7.92,19.6,87.3,1012.62,0.24,0,0,0,0.031357
2021/04/07 04:15:00.000,n,227,3.24,1.44,4.68,19.6,87.2,1012.62,0.24,0,0,0,0.030518
2021/04/07 04:16:00.006,n,231,3.96,3.24,4.32,19.6,87.4,1012.62,0.24,0,0,0,0.027008
2021/04/07 04:17:00.002,n,233,3.96,3.24,6.12,19.6,87.3,1012.62,0.24,0,0,0,0.029602
2021/04/07 04:18:00.000,n,216,2.52,2.16,3.24,19.6,87.2,1012.62,0.24,0,0,0,0.028725
2021/04/07 04:19:00.013,n,252,5.4,3.6,6.48,19.7,87.4,1012.62,0.24,0,0,0,0.030518
2021/04/07 04:20:00.010,n,247,3.96,2.88,5.04,19.7,87.2,1012.52,0.24,0,0,0,0.027008
2021/04/07 04:21:00.007,n,243,2.88,0.72,5.04,19.6,87.2,1012.52,0.24,0,0,0,0.031357
2021/04/07 04:22:00.000,n,258,6.84,6.12,7.2,19.6,87.3,1012.52,0.24,0,0,0,0.028725
2021/04/07 04:23:00.003,n,245,6.12,5.76,7.2,19.6,87.1,1012.52,0.24,0,0,0,0.030518
2021/04/07 04:24:00.000,n,220,1.44,0.72,2.52,19.6,87.3,1012.52,0.24,0,0,0,0.029602
2021/04/07 04:25:00.000,n,149,0.72,0.72,1.44,19.7,87.4,1012.52,0.24,0,0,0,0.030518
2021/04/07 04:26:00.000,n,225,5.4,5.04,6.12,19.7,87.2,1012.52,0.24,0,0,0,0.031357
2021/04/07 04:27:00.008,n,190,2.52,1.8,2.88,19.6,87.2,1012.52,0.24,0,0,0,0.028725
2021/04/07 04:28:00.005,n,180,1.44,0.36,2.52,19.6,87.2,1012.52,0.24,0,0,0,0.032234
2021/04/07 04:29:00.002,n,238,2.52,0.72,3.24,19.6,87.2,1012.42,0.24,0,0,0,0.027885
2021/04/07 04:30:00.015,n,157,5.4,4.32,7.56,19.6,87.2,1012.42,0.24,0,0,0,0.027008
2021/04/07 04:31:00.000,n,226,3.6,1.8,4.32,19.6,87.2,1012.52,0.24,0,0,0,0.029602
2021/04/07 04:32:00.000,n,150,1.08,0.72,1.44,19.6,87.4,1012.52,0.24,0,0,0,0.031357
2021/04/07 04:33:00.000,n,163,3.96,3.24,5.04,19.6,87.3,1012.52,0.24,0,0,0,0.029602
2021/04/07 04:34:00.006,n,191,3.6,3.24,3.6,19.6,87.3,1012.52,0.24,0,0,0,0.031357
2021/04/07 04:35:00.003,n,228,6.12,5.04,7.56,19.6,87.2,1012.52,0.24,0,0,0,0.029602
2021/04/07 04:36:00.000,n,115,2.88,2.52,3.24,19.6,87.2,1012.62,0.24,0,0,0,0.032234
2021/04/07 04:37:00.000,n,147,2.88,1.8,3.6,19.6,87.2,1012.62,0.24,0,0,0,0.027885
2021/04/07 04:38:00.012,n,167,2.52,2.52,3.24,19.6,87.2,1012.62,0.24,0,0,0,0.026131
2021/04/07 04:39:00.009,n,124,2.52,1.08,11.88,19.6,87.2,1012.62,0.24,0,0,0,0.028725
2021/04/07 04:40:00.000,n,182,3.24,2.88,3.6,19.6,87.2,1012.72,0.24,0,0,0,0.029602
2021/04/07 04:41:00.004,n,211,6.48,4.32,10.440002,19.6,87.2,1012.72,0.24,0,0,0,0.028725
2021/04/07 04:42:00.000,n,162,12.96,12.24,13.68,19.6,87.2,1012.72,0.24,0,0,0,0.029602
2021/04/07 04:43:00.000,n,227,2.88,2.52,2.88,19.6,87.2,1012.72,0.24,0,0,0,0.030518
2021/04/07 04:44:00.000,n,182,9.36,8.64,10.08,19.7,87.5,1012.72,0.24,0,0,0,0.028725
2021/04/07 04:45:00.010,n,159,10.8,2.16,12.24,19.7,87.3,1012.72,0.24,0,0,0,0.027008
2021/04/07 04:46:00.006,n,201,7.2,2.88,9.72,19.7,87.4,1012.72,0.24,0,0,0,0.028725
2021/04/07 04:47:00.004,n,166,9.72,9.36,10.08,19.7,87.5,1012.72,0.24,0,0,0,0.026131
2021/04/07 04:48:00.001,n,152,12.24,11.88,12.6,19.7,87.3,1012.82,0.24,0,0,0,0.030518